Change the Weather History Date:

Thursday, February 7, 2013

  Actual Average Record
Temperature  
Mean Temperature 60 °F -  
Max Temperature 68 °F 62 °F 77 °F (1999)
Min Temperature 53 °F 43 °F 30 °F (2009)
Degree Days  
Heating Degree Days 4    
Growing Degree Days 10 (Base 50)    
Moisture  
Dew Point 61 °F    
Average Humidity 96    
Maximum Humidity 100    
Minimum Humidity 83    
Precipitation  
Precipitation 0.39 in - - ()
Sea Level Pressure  
Sea Level Pressure 29.88 in    
Wind  
Wind Speed 9 mph (SSW)    
Max Wind Speed 22 mph    
Max Gust Speed 31 mph    
Visibility 8 miles    
Events Rain    
Averages and records for this station are not official NWS values.
T = Trace of Precipitation, MM = Missing Value Source: NWS Daily Summary

Daily Weather History Graph

Daily Weather History Graph

Search for Another Location

Airport or City:

Trip Planner

Search our weather history database for the weather conditions in past years. The results will help you decide how hot, cold, wet, or windy it might be!

Date:

Astronomy

Feb. 07, 2013 Rise Set
Actual Time 7:20 AM EST 6:13 PM EST
Civil Twilight 6:55 AM EST 6:39 PM EST
Nautical Twilight 6:26 AM EST 7:07 PM EST
Astronomical Twilight 5:58 AM EST 7:35 PM EST
Moon 4:52 AM EST (2/7) 3:42 PM EST (2/7)
Length of Visible Light 11h 43m
Length of Day
10h 53m
Waning Crescent, 9% of the Moon is Illuminated
Feb 7
Waning Crescent
Feb 10
New
Feb 17
First Quarter
Feb 25
Full
Mar 4
Last Quarter

Hourly Weather History & Observations

Time (EST) Temp. Dew Point Humidity Pressure Visibility Wind Dir Wind Speed Gust Speed Precip Events Conditions
12:55 AM 58.3 °F 55.8 °F 91% 30.10 in 10.0 mi ESE 3.5 mph - N/A   Overcast
1:55 AM 58.3 °F 55.4 °F 90% 30.09 in 10.0 mi ESE 4.6 mph - N/A   Overcast
2:55 AM 57.6 °F 54.7 °F 90% 30.07 in 10.0 mi East 4.6 mph - N/A   Overcast
3:05 AM 57.2 °F 55.4 °F 94% 30.08 in 10.0 mi ESE 3.5 mph - N/A   Overcast
3:31 AM 57.2 °F 55.4 °F 94% 30.08 in 10.0 mi Calm Calm - N/A   Mostly Cloudy
3:55 AM 56.5 °F 54.1 °F 92% 30.08 in 10.0 mi East 3.5 mph - N/A   Scattered Clouds
4:55 AM 56.8 °F 54.9 °F 93% 30.06 in 10.0 mi East 6.9 mph - N/A   Mostly Cloudy
5:55 AM 58.1 °F 54.9 °F 89% 30.04 in 10.0 mi East 9.2 mph - N/A   Partly Cloudy
6:55 AM 59.0 °F 56.1 °F 90% 30.04 in 10.0 mi East 6.9 mph - N/A   Mostly Cloudy
7:28 AM 59.0 °F 57.2 °F 94% 30.04 in 10.0 mi ESE 5.8 mph - N/A   Mostly Cloudy
7:48 AM 59.0 °F 57.2 °F 94% 30.04 in 10.0 mi ESE 5.8 mph - N/A   Mostly Cloudy
7:55 AM 59.2 °F 56.8 °F 92% 30.03 in 10.0 mi East 6.9 mph - N/A   Mostly Cloudy
8:25 AM 59.0 °F 57.2 °F 94% 30.03 in 10.0 mi ESE 5.8 mph - N/A   Mostly Cloudy
8:47 AM 60.8 °F 57.2 °F 88% 30.03 in 10.0 mi East 5.8 mph - N/A   Scattered Clouds
8:55 AM 60.3 °F 57.9 °F 92% 30.03 in 10.0 mi ESE 6.9 mph - N/A   Scattered Clouds
9:22 AM 60.8 °F 59.0 °F 94% 30.02 in 10.0 mi ESE 4.6 mph - N/A Rain Light Rain
9:55 AM 61.5 °F 60.6 °F 97% 30.01 in 10.0 mi ESE 6.9 mph - 0.00 in Rain Light Rain
10:22 AM 62.6 °F 60.8 °F 94% 30.00 in 10.0 mi SE 6.9 mph - N/A   Mostly Cloudy
10:55 AM 62.1 °F 61.9 °F 99% 30.00 in 10.0 mi SE 6.9 mph - 0.02 in   Mostly Cloudy
11:26 AM 62.6 °F 62.6 °F 100% 29.98 in 10.0 mi SE 8.1 mph - N/A Rain Light Rain
11:40 AM 62.6 °F 62.6 °F 100% 29.97 in 10.0 mi SE 8.1 mph - N/A   Scattered Clouds
11:55 AM 64.6 °F 64.2 °F 99% 29.94 in 10.0 mi ESE 10.4 mph - 0.00 in   Scattered Clouds
11:56 AM 64.4 °F 64.4 °F 100% 29.94 in 10.0 mi East 9.2 mph - N/A Rain Light Rain
12:05 PM 66.2 °F 64.4 °F 94% 29.94 in 10.0 mi SE 11.5 mph - N/A   Partly Cloudy
12:31 PM 68.0 °F 62.6 °F 83% 29.93 in 10.0 mi SE 11.5 mph - N/A   Mostly Cloudy
12:44 PM 68.0 °F 62.6 °F 83% 29.94 in 10.0 mi SSE 10.4 mph - N/A Rain Light Rain
12:55 PM 66.9 °F 63.9 °F 90% 29.93 in 8.0 mi SSE 11.5 mph - 0.01 in Rain Light Rain
1:00 PM 66.2 °F 64.4 °F 94% 29.93 in 5.0 mi SSE 10.4 mph - N/A Rain Light Rain
1:16 PM 66.2 °F 64.4 °F 94% 29.93 in 6.0 mi SSE 9.2 mph - N/A Rain Light Rain
1:20 PM 66.2 °F 66.2 °F 100% 29.92 in 7.0 mi SSE 11.5 mph - N/A Rain Light Rain
1:29 PM 66.2 °F 66.2 °F 100% 29.91 in 6.0 mi SSE 8.1 mph - N/A Rain Light Rain
1:40 PM 66.2 °F 66.2 °F 100% 29.90 in 10.0 mi SSE 6.9 mph - N/A Rain Light Rain
1:46 PM 66.2 °F 66.2 °F 100% 29.90 in 10.0 mi SSE 6.9 mph - N/A Rain Light Rain
1:55 PM 66.4 °F 66.2 °F 99% 29.88 in 10.0 mi SSE 8.1 mph - 0.08 in Rain Light Rain
2:00 PM 66.2 °F 66.2 °F 100% 29.87 in 10.0 mi SE 9.2 mph - N/A   Mostly Cloudy
2:55 PM 67.6 °F 66.0 °F 95% 29.84 in 10.0 mi SSE 16.1 mph - 0.00 in   Scattered Clouds
3:18 PM 68.0 °F 64.4 °F 88% 29.83 in 10.0 mi South 16.1 mph 24.2 mph N/A   Mostly Cloudy
3:30 PM 68.0 °F 64.4 °F 88% 29.82 in 10.0 mi South 17.3 mph 24.2 mph N/A Rain Light Rain
3:40 PM 68.0 °F 64.4 °F 88% 29.81 in 10.0 mi SSE 20.7 mph 27.6 mph N/A Rain Light Rain
3:46 PM 68.0 °F 62.6 °F 83% 29.82 in 10.0 mi SSE 19.6 mph 31.1 mph N/A Rain Light Rain
3:49 PM 68.0 °F 62.6 °F 83% 29.82 in 10.0 mi South 20.7 mph 31.1 mph N/A   Mostly Cloudy
3:52 PM 68.0 °F 62.6 °F 83% 29.83 in 10.0 mi South 19.6 mph 26.5 mph N/A Rain Light Rain
3:55 PM 67.1 °F 62.4 °F 85% 29.83 in 10.0 mi South 18.4 mph 26.5 mph 0.01 in Rain Light Rain
3:56 PM 66.2 °F 62.6 °F 88% 29.83 in 9.0 mi South 17.3 mph 25.3 mph N/A Rain Light Rain
4:11 PM 66.2 °F 62.6 °F 88% 29.83 in 10.0 mi South 15.0 mph 26.5 mph N/A Rain Light Rain
4:26 PM 66.2 °F 60.8 °F 83% 29.83 in 9.0 mi South 17.3 mph - N/A Rain Light Rain
4:43 PM 64.4 °F 62.6 °F 94% 29.81 in 10.0 mi South 15.0 mph - N/A   Overcast
4:47 PM 64.4 °F 62.6 °F 94% 29.81 in 10.0 mi South 15.0 mph - N/A Rain Light Rain
4:55 PM 64.9 °F 63.0 °F 93% 29.81 in 10.0 mi SSE 13.8 mph 21.9 mph 0.08 in Rain Light Rain
4:56 PM 64.4 °F 62.6 °F 94% 29.81 in 10.0 mi South 15.0 mph 21.9 mph N/A   Overcast
5:19 PM 64.4 °F 62.6 °F 94% 29.78 in 10.0 mi SSE 18.4 mph 24.2 mph N/A Rain Light Rain
5:29 PM 64.4 °F 62.6 °F 94% 29.78 in 10.0 mi SSE 18.4 mph 24.2 mph N/A   Overcast
5:34 PM 64.4 °F 62.6 °F 94% 29.79 in 10.0 mi South 16.1 mph 24.2 mph N/A Rain Light Rain
5:46 PM 64.4 °F 62.6 °F 94% 29.78 in 10.0 mi SSE 20.7 mph - N/A   Overcast
5:55 PM 65.3 °F 63.3 °F 93% 29.77 in 10.0 mi SSE 21.9 mph 29.9 mph 0.00 in   Overcast
6:30 PM 64.4 °F 64.4 °F 100% 29.75 in 10.0 mi South 20.7 mph 25.3 mph N/A   Overcast
6:55 PM 65.8 °F 63.9 °F 93% 29.75 in 10.0 mi South 17.3 mph 25.3 mph N/A   Overcast
7:04 PM 66.2 °F 64.4 °F 94% 29.77 in 10.0 mi SSW 16.1 mph 23.0 mph N/A Rain Light Rain
7:07 PM 66.2 °F 64.4 °F 94% 29.78 in 10.0 mi SW 12.7 mph 23.0 mph N/A Rain Light Rain
7:08 PM 66.2 °F 64.4 °F 94% 29.78 in 10.0 mi SW 10.4 mph 23.0 mph N/A Rain Light Rain
7:09 PM 66.2 °F 64.4 °F 94% 29.78 in 10.0 mi WSW 10.4 mph 23.0 mph N/A Rain Light Rain
7:15 PM 66.2 °F 64.4 °F 94% 29.78 in 9.0 mi NW 9.2 mph - N/A Rain Light Rain
7:16 PM 66.2 °F 64.4 °F 94% 29.79 in 8.0 mi WNW 10.4 mph - N/A Rain Light Rain
7:20 PM 66.2 °F 64.4 °F 94% 29.78 in 2.0 mi WNW 9.2 mph - N/A Rain Heavy Rain
7:22 PM 64.4 °F 64.4 °F 100% 29.78 in 1.8 mi Variable 4.6 mph - N/A Rain Heavy Rain
7:24 PM 64.4 °F 64.4 °F 100% 29.79 in 1.5 mi SSW 4.6 mph - N/A Rain Heavy Rain
7:25 PM 64.4 °F 64.4 °F 100% 29.79 in 1.2 mi Variable 5.8 mph - N/A Rain Heavy Rain
7:26 PM 64.4 °F 64.4 °F 100% 29.79 in 1.2 mi Variable 6.9 mph - N/A Rain Heavy Rain
7:27 PM 64.4 °F 64.4 °F 100% 29.79 in 1.2 mi West 6.9 mph - N/A Rain Heavy Rain
7:29 PM 64.4 °F 64.4 °F 100% 29.79 in 1.5 mi West 6.9 mph - N/A Rain Heavy Rain
7:30 PM 64.4 °F 64.4 °F 100% 29.79 in 1.8 mi West 6.9 mph - N/A Rain Light Rain
7:31 PM 64.4 °F 64.4 °F 100% 29.78 in 1.8 mi WNW 4.6 mph - N/A Rain Light Rain
7:32 PM 64.4 °F 64.4 °F 100% 29.78 in 2.0 mi NW 3.5 mph - N/A Rain Light Rain
7:35 PM 64.4 °F 64.4 °F 100% 29.79 in 3.0 mi West 5.8 mph - N/A Rain Light Rain
7:38 PM 64.4 °F 64.4 °F 100% 29.79 in 9.0 mi West 6.9 mph - N/A Rain Light Rain
7:39 PM 64.4 °F 64.4 °F 100% 29.80 in 10.0 mi West 6.9 mph - N/A Rain Light Rain
7:41 PM 64.4 °F 64.4 °F 100% 29.80 in 10.0 mi West 6.9 mph - N/A   Light Drizzle
7:45 PM 64.4 °F 64.4 °F 100% 29.80 in 10.0 mi WNW 5.8 mph - N/A   Overcast
7:46 PM 64.4 °F 64.4 °F 100% 29.80 in 10.0 mi WNW 5.8 mph - N/A   Overcast
7:47 PM 64.4 °F 64.4 °F 100% 29.80 in 10.0 mi WNW 5.8 mph - N/A   Overcast
7:49 PM 64.4 °F 64.4 °F 100% 29.80 in 10.0 mi WNW 5.8 mph - N/A   Overcast
7:52 PM 64.4 °F 64.4 °F 100% 29.80 in 10.0 mi WNW 5.8 mph - N/A   Overcast
7:53 PM 64.4 °F 64.4 °F 100% 29.79 in 10.0 mi WNW 4.6 mph - N/A   Overcast
7:55 PM 64.2 °F 63.9 °F 99% 29.80 in 10.0 mi West 6.9 mph - 0.19 in   Overcast
8:02 PM 64.4 °F 64.4 °F 100% 29.81 in 10.0 mi WSW 5.8 mph - N/A   Overcast
8:12 PM 64.4 °F 64.4 °F 100% 29.81 in 10.0 mi West 4.6 mph - N/A   Overcast
8:19 PM 64.4 °F 64.4 °F 100% 29.81 in 10.0 mi West 5.8 mph - N/A   Overcast
8:43 PM 62.6 °F 62.6 °F 100% 29.83 in 10.0 mi West 12.7 mph 18.4 mph N/A   Overcast
8:50 PM 62.6 °F 62.6 °F 100% 29.84 in 10.0 mi WNW 13.8 mph 18.4 mph N/A   Overcast
8:55 PM 62.4 °F 62.2 °F 99% 29.84 in 10.0 mi WNW 11.5 mph - N/A   Overcast
8:59 PM 62.6 °F 62.6 °F 100% 29.84 in 10.0 mi WNW 11.5 mph - N/A   Overcast
9:05 PM 60.8 °F 60.8 °F 100% 29.85 in 10.0 mi WNW 10.4 mph - N/A   Overcast
9:39 PM 57.2 °F 57.2 °F 100% 29.88 in 6.0 mi WNW 15.0 mph - N/A   Overcast
9:41 PM 57.2 °F 57.2 °F 100% 29.88 in 5.0 mi WNW 13.8 mph - N/A   Overcast
9:43 PM 57.2 °F 57.2 °F 100% 29.88 in 6.0 mi WNW 12.7 mph - N/A   Overcast
9:46 PM 57.2 °F 57.2 °F 100% 29.88 in 6.0 mi WNW 13.8 mph - N/A   Overcast
9:55 PM 56.3 °F 56.1 °F 99% 29.88 in 8.0 mi WNW 11.5 mph 20.7 mph N/A   Overcast
10:00 PM 55.4 °F 55.4 °F 100% 29.88 in 7.0 mi WNW 12.7 mph 20.7 mph N/A   Overcast
10:04 PM 55.4 °F 55.4 °F 100% 29.89 in 6.0 mi NW 13.8 mph - N/A   Overcast
10:06 PM 55.4 °F 55.4 °F 100% 29.89 in 6.0 mi NW 15.0 mph - N/A   Overcast
10:19 PM 55.4 °F 55.4 °F 100% 29.90 in 7.0 mi WNW 12.7 mph - N/A   Overcast
10:37 PM 55.4 °F 55.4 °F 100% 29.90 in 10.0 mi WNW 10.4 mph - N/A   Overcast
10:46 PM 55.4 °F 55.4 °F 100% 29.90 in 10.0 mi WNW 10.4 mph - N/A   Overcast
10:55 PM 55.0 °F 54.7 °F 99% 29.91 in 8.0 mi NW 11.5 mph - N/A   Overcast
10:59 PM 55.4 °F 55.4 °F 100% 29.91 in 7.0 mi NW 9.2 mph - N/A   Overcast
11:02 PM 55.4 °F 55.4 °F 100% 29.91 in 6.0 mi NW 10.4 mph - N/A   Overcast
11:06 PM 55.4 °F 55.4 °F 100% 29.91 in 6.0 mi WNW 12.7 mph - N/A   Overcast
11:07 PM 55.4 °F 55.4 °F 100% 29.91 in 6.0 mi NW 11.5 mph - N/A   Overcast
11:13 PM 55.4 °F 53.6 °F 94% 29.91 in 9.0 mi WNW 13.8 mph - N/A   Overcast
11:20 PM 53.6 °F 53.6 °F 100% 29.91 in 10.0 mi WNW 9.2 mph - N/A   Overcast
11:55 PM 53.2 °F 53.1 °F 99% 29.92 in 10.0 mi WNW 9.2 mph - N/A   Overcast